FREGAT R/B, 40002

Orbit data source: Space-Track

FREGAT R/B, 40002 is space debris in MEO originally from a launch on Sat, 14 Jun 2014 UTC launched from the Plesetsk Missile And Space Complex (PKMTR). Debris objects in space refer to the collection of defunct objects orbiting the Earth. Examples of debris include non-operational satellites, rocket bodies, and fragments generated from explosions, collisions, or faulty payload assembly.

Loading next visibility...
Identifier
40002, 2014-032B
Orbit
MEO
Country
Flag of CISCIS
Related business
Manufacturer
Lavochkin
Mission
Spacecraft
Bus & Motor
FREGAT, Unknown motor
Mass
1,000 kg wet, 1,000 kg dry
Launch date (UTC)
2014-06-14 (12 years ago)
Launch vehicle
Unknown
Launch site
Plesetsk Missile And Space Complex (PKMTR)
Object type
Payload
Rocket body
Debris
Shape & HBR
Cyl, 1.7 m
Radar Cross Section
8.354 m², Large (>1 m²)

Expand to show TLE details & history
Last TLE update: 3 days ago

TLE from 3 days ago
0 FREGAT R/B
1 40002U 14032B   26170.82113119 -.00000062  00000-0  00000-0 0  9997
2 40002  65.4305 319.8383 0079212  85.3317 275.5632  2.09160835 91783
Epoch: 2026-06-19T19:42Z
TLE epoch observation values (Epoch: 2026-06-19T19:42:25.734Z)
Latitude
0.00001°
Longitude
116.17225°
Altitude
19,431.742 km
Speed
3.931 km/s
True Right ascension
21h 19m 17s
True Declination
0° 00' 00"
Sunlit
Object was in daylight at epoch
Visualization orbit readout
Latitude
Unknown
Longitude
Unknown
Altitude
Unknown
Speed
Unknown
Apparent Right ascension
Unknown
Apparent Declination
Unknown
Sunlit
N/A
Visualization observer readout
Local Sidereal Time
21:39:55
Azimuth
Unknown
Elevation
Unknown
Doppler factor
Unknown
Orbital elements
Apogee altitude
19,653.504 km
Perigee altitude
19,244.341 km
Semi-major axis
25,827.059 km
Eccentricity
0.00792
Inclination
65.4305°
RAAN
319.8383°
Arg. of periapsis
85.3317°
True anomaly
274.65894°
Mean anomaly
275.5632°
Eccentric anomaly
275.11115°
Mean motion
0.52291 °/min
Orbital period
688.45 mins
BSTAR
0
Loading maneuver chart data...
Computing Atmospheric mass density...
Loading historical data...
Loading historical data...
Loading historical data...
Loading historical data...
Loading historical data...
Loading historical data...
Loading historical data...
Other satellites on launch #32 in the year 2014 (2014-06-14 UTC)

Documentation

Showing up to 5 results
|